Regional Weather Roundup
Issued by NWS Nashville, TN

Current Version | Previous Version | Text Only | Print | Product List | Glossary Off
Versions: 1 2 3 4 5 6 7 8 9 10 11 12 13 14 15 16 17 18 19 20 21 22 23 24 25 26 27 28 29 30 31 32 33 34 35 36 37 38 39 40 41 42 43 44 45 46 47 48 49 50

000
ASUS44 KOHX 130010
RWROHX
MIDDLE TENNESSEE HOURLY WEATHER ROUNDUP
NATIONAL WEATHER SERVICE NASHVILLE TN
700 PM CDT WED AUG 12 2020

NOTE: "FAIR" INDICATES FEW OR NO CLOUDS BELOW 12,000 FEET WITH
NO SIGNIFICANT WEATHER AND/OR OBSTRUCTIONS TO VISIBILITY.

* THESE REPORTS ARE NOT UNDER NWS QUALITY CONTROL AND MAY NOT
  REPORT WEATHER SUCH AS PRECIPITATION AND FOG.


TNZ005>011-023>034-057-059-062>066-078-080-130100
...NORTHERN MIDDLE TENNESSEE...

CITY           SKY/WX    TMP DP  RH WIND       PRES   REMARKS
CROSSVILLE     LGT RAIN  69  66  90 NW5       30.09F FOG
DICKSON        CLEAR     75  73  94 CALM      30.02S
GALLATIN       PTCLDY    82  72  69 CALM      30.05R
LEBANON        PTCLDY    79  72  78 E6G13     30.00S
LIVINGSTON     PTCLDY    75  70  83 SW8       30.05R
NASHVILLE      CLOUDY    78  73  84 CALM      30.04R
PORTLAND       CLEAR     79  72  78 CALM      30.03R
ROCKWOOD       CLEAR     75  73  94 NW5       30.06S
SMYRNA         CLOUDY    77  74  90 CALM      30.04R
SPARTA         CLEAR     72  68  88 SE5       30.03F
SPRINGFIELD    CLEAR     77  73  88 CALM      30.03R
WEST NASHVILLE CLEAR     79  73  83 S5        30.01R
$$
TNZ056-058-060-061-075>077-079-093>097-130100
...SOUTHERN MIDDLE TENNESSEE...

CITY           SKY/WX    TMP DP  RH WIND       PRES   REMARKS
FAYETTEVILLE   CLEAR     79  73  83 N6        30.04R
LAWRENCEBURG   MOCLDY    72  70  94 NE9       30.03S FOG
LEWISBURG      MOCLDY    73  72  94 NE3       30.04R
MCMINNVILLE    CLOUDY    72  68  88 CALM      30.03S
MURFREESBORO   PTCLDY    77  73  88 CALM      30.01R
PULASKI        MOCLDY    75  72  88 N6G12     30.02R
SHELBYVILLE    PTCLDY    77  72  83 NW5       30.03R
TULLAHOMA      CLEAR     77  68  73 NE6       30.03R
WINCHESTER     PTCLDY    79  70  73 NE6       30.03R
$$


...KEY TO REMARKS...
VSB - VISIBILITY IN MILES
WCI - WIND CHILL INDEX
HX  - HEAT INDEX




USA.gov is the U.S. government's official web portal to all federal, state and local government web resources and services.